Weather Roundup
Issued by NWS

Current Version | Previous Version | Text Only | Print | Product List | Glossary On
Versions: 1 2 3 4 5 6 7 8 9 10 11 12 13 14 15 16 17 18 19 20 21 22 23 24 25 26 27 28 29 30 31 32 33 34 35 36 37 38 39 40 41 42 43 44 45 46 47 48 49 50
000
NZUS93 KARX 262210
HRRWXR

CURRENT HOURLY OBSERVATIONS ACROSS
MUCH OF THE UPPER MISSISSIPPI VALLEY
NATIONAL WEATHER SERVICE LA CROSSE WI
400 PM CST SUN JAN 26 2020


...SOUTHEAST MINNESOTA...


CITY           SKY/WX    TMP DP  RH WIND       PRES   REMARKS
ROCHESTER      CLOUDY    26  21  81 CALM      29.86F
ROCHESTER/MAYO CLOUDY    29  24  81 W3        29.87F
WINONA         CLOUDY    23  18  80 NE3       29.91S
AUSTIN         CLOUDY    30  27  86 SW6       29.88R WCI  24
ALBERT LEA     FOG       27  27 100 SW5       29.88R VSB 3/4 WCI  21
DODGE CENTER   PTSUNNY   27  21  80 CALM      29.86S
PRESTON        CLOUDY    25  22  87 W5        29.87F WCI  19
OWATONNA       CLOUDY    27  25  93 SW3       29.87S
$$

...ELSEWHERE IN MINNESOTA...


CITY           SKY/WX    TMP DP  RH WIND       PRES   REMARKS
MINNEAPOLIS    CLOUDY    30  22  72 CALM      29.89S
INTNL FALLS    CLOUDY    22  18  85 N8        29.92R WCI  12
DULUTH         CLOUDY    26  22  84 N6        29.86R WCI  19
RED WING       CLOUDY    28  21  74 CALM      29.89S
REDWOOD FALLS  CLOUDY    27  25  92 SE7       29.87S FOG     WCI  19
MANKATO          N/A    N/A N/A N/A MISG        N/A  FOG
WORTHINGTON    SUNNY     32  28  85 W13       29.86R WCI  22
FAIRMONT       CLOUDY    30  27  88 SW5       29.88S WCI  25
$$

...SOUTHWEST WISCONSIN...


CITY           SKY/WX    TMP DP  RH WIND       PRES   REMARKS
LA CROSSE      CLOUDY    30  23  75 NW5       29.90S WCI  25
PRAIRIE DU CHI CLOUDY    30  23  75 W7        29.90S WCI  23
BOSCOBEL       CLOUDY    30  23  75 W3        29.91S
LONE ROCK      CLOUDY    29  23  78 W6        29.89S WCI  23
PLATTEVILLE    FAIR      26  25  96 NW5       29.88S WCI  21
FORT MC COY    CLOUDY    27  24  89 W3        29.90S
CAMP DOUGLAS   CLOUDY    28  27  99 W7        29.88R WCI  20
MAUSTON-NEW LI CLOUDY    28  25  89 NW7       29.87S WCI  21
VIROQUA        CLOUDY    26  26 100 NW6       29.86S WCI  20
WIS DELLS      CLOUDY    27  25  93 NW3       29.87R
$$

...ELSEWHERE IN WISCONSIN...


CITY           SKY/WX    TMP DP  RH WIND       PRES   REMARKS
MILWAUKEE      CLOUDY    34  28  79 NW8       29.85S WCI  27
MADISON        CLOUDY    29  25  85 VRB5      29.87S WCI  24
GREEN BAY      CLOUDY    34  28  79 W7        29.83S WCI  28
EAU CLAIRE     CLOUDY    27  21  78 CALM      29.89R HAZE
BLACK RVR FLS  CLOUDY    28  25  87 NW6       29.89S WCI  22
MEDFORD        CLOUDY    25  23  95 NW5       29.84S WCI  19
WAUSAU         CLOUDY    28  25  88 W6        29.83S WCI  22
WIS RAPIDS     CLOUDY    26  23  88 NW7       29.88R WCI  18
MARSHFIELD     CLOUDY    25  22  88 NW5       29.86R WCI  19
RICE LAKE      CLOUDY    31  28  87 NE3       29.90R
$$

...NORTHEAST IOWA...


CITY           SKY/WX    TMP DP  RH WIND       PRES   REMARKS
WATERLOO       CLOUDY    28  25  88 W8        29.91S FOG     WCI  20
DUBUQUE        CLOUDY    28  23  81 W12       29.88S WCI  18
DECORAH        CLOUDY    27  25  93 CALM      29.86F
MASON CITY     CLOUDY    29  27  92 W5        29.89S FOG     WCI  24
CHARLES CITY   CLOUDY    27  27 100 SW8       29.89S FOG     WCI  18
OELWEIN        CLOUDY    28  28 100 W7        29.90R WCI  21
$$

...ELSEWHERE IN IOWA...


CITY           SKY/WX    TMP DP  RH WIND       PRES   REMARKS
DES MOINES     CLOUDY    31  28  89 SW9       29.92S WCI  23
IOWA CITY      CLOUDY    30  25  81 NW9       29.95R WCI  22
FORT DODGE     CLOUDY    31  29  92 W8        29.90R FOG     WCI  23
MARSHALLTOWN   CLOUDY    29  29 100 W7        29.90S FOG     WCI  22
CEDAR RAPIDS   CLOUDY    27  26  96 W12       29.91S FOG     WCI  17
$$

...NORTHERN ILLINOIS...


CITY           SKY/WX    TMP DP  RH WIND       PRES   REMARKS
CHICAGO-OHARE  CLOUDY    30  27  88 W7        29.88S WCI  23
CHICAGO-MIDWAY CLOUDY    30  26  85 SW12      29.89S WCI  20
MOLINE         CLOUDY    31  24  75 W10       29.92S WCI  22
ROCKFORD       CLOUDY    29  25  85 W10       29.91S WCI  20
PEORIA         FAIR      34  26  72 W8        29.93S WCI  27
$$

NOTE: "FAIR" INDICATES FEW OR NO CLOUDS BELOW 12,000 FEET WITH NO
SIGNIFICANT WEATHER AND/OR OBSTRUCTIONS TO VISIBILITY. WIND
SPEEDS ARE IN MILES-PER-HOUR.




USA.gov is the U.S. government's official web portal to all federal, state and local government web resources and services.